[[{"header":{"parameterUnit":"m.s-1","parameterCategory":1,"la1":30.2991,"la2":30.254,"lo1":-89.0895,"lo2":-89.0444,"dy":0.0017,"dx":0.0017,"nx":28,"ny":28,"refTime":"2024-02-06T09:00:00:Z","depth":0,"parameterNumber":2,"parameterNumberName":"U-component_of_WINDS"},"data":[0,0,0,0,0,0,0,0,0,0,0,0,0,0,0,0,0,0,0,0,0,0,0,0,0,0,0,0,0,0,0,0,0,0,0,0,0,0,0,0,0,0,0,0,0,0,0,0,0,0,0,0,0,0,0,0,0,0,-4.239,-4.2391,0,-4.2504,-4.2505,-4.2507,-4.2466,-4.2463,-4.246,-4.2458,-4.2574,-4.258,-4.2585,0,0,0,0,0,0,0,0,0,0,0,0,0,-4.2138,-4.2142,-4.239,-4.2391,-4.2393,-4.2504,-4.2505,-4.2507,-4.2466,-4.2463,-4.246,-4.2457,-4.2573,-4.2579,-4.2586,0,0,0,0,0,0,0,0,0,0,0,0,0,-4.2249,-4.2144,-4.239,-4.2386,-4.2386,-4.2504,-4.2505,-4.2507,-4.2467,-4.2463,-4.2459,-4.2455,-4.257,-4.2578,-4.2587,-4.2714,0,0,-4.2612,-4.2615,0,0,0,0,0,0,0,0,-4.2243,-4.2258,-4.2385,-4.2386,-4.2387,-4.2467,-4.2459,-4.2577,-4.2468,-4.2436,-4.2458,-4.2453,-4.2542,-4.2552,-4.2582,-4.272,-4.2725,-4.2612,-4.2617,-4.2621,-4.2623,0,0,0,0,0,0,0,-4.2235,-4.2253,-4.2435,-4.2387,-4.2388,-4.2379,-4.239,-4.2481,-4.2509,-4.2439,-4.2436,-4.245,-4.2541,-4.2574,-4.2584,-4.2726,-4.2612,-4.2619,-4.2625,-4.2628,-4.2975,-4.2979,0,0,0,0,0,0,-4.2227,-4.2247,-4.2431,-4.2438,-4.2304,-4.2386,-4.2399,-4.2445,-4.2508,-4.2514,-4.2453,-4.2448,-4.2562,-4.2575,-4.2588,-4.2741,-4.2621,-4.2629,-4.2633,-4.2971,-4.2976,-4.2981,0,0,0,0,0,0,-4.2221,-4.2243,-4.2427,-4.2342,-4.2365,-4.2395,-4.2446,-4.2449,-4.2481,-4.2519,-4.2524,-4.2481,-4.2559,-4.2577,-4.2683,-4.2744,-4.2632,-4.264,-4.2966,-4.2972,-4.2978,-4.3047,0,0,0,0,0,0,-4.2214,-4.2242,-4.229,-4.2343,-4.2369,-4.252,-4.245,-4.2454,-4.2496,-4.249,-4.2546,-4.2552,-4.2558,-4.2671,-4.2691,-4.2753,-4.2646,-4.296,-4.2969,-4.2976,-4.304,-4.3055,-4.3069,0,0,0,0,0,-4.2205,-4.2305,-4.2293,-4.2315,-4.243,-4.2523,-4.2538,-4.2542,-4.2501,-4.255,-4.2574,-4.255,-4.2735,-4.2682,-4.2705,-4.277,-4.2956,-4.2966,-4.2976,-4.3033,-4.3052,-4.3068,0,0,0,0,0,0,-4.2257,-4.2312,-4.2299,-4.2418,-4.2467,-4.2516,-4.2577,-4.2563,-4.2623,-4.2615,-4.2618,-4.2631,-4.2741,-4.2767,-4.2707,-4.2897,-4.284,-4.2854,-4.2876,-4.2894,-4.2908,-4.2898,-4.2653,0,0,0,0,0,-4.2283,-4.2353,-4.2397,-4.2499,-4.2524,-4.2547,-4.2588,-4.2587,-4.2637,-4.2657,-4.2689,-4.2738,-4.2808,-4.2853,-4.2919,-4.3045,-4.3056,-4.3101,-4.3116,-4.3128,-4.3139,-4.3207,-4.3227,-4.3012,-4.3012,-4.3012,0,0,-4.2335,-4.2374,-4.2418,-4.251,-4.2547,-4.262,-4.2564,-4.2644,-4.2698,-4.2669,-4.2771,-4.2797,-4.2853,-4.2969,-4.3022,-4.2994,-4.3202,-4.314,-4.3149,-4.3154,-4.3219,-4.3239,-4.3257,-4.3019,-4.3018,-4.3017,0,0,-4.2468,-4.2505,-4.2593,-4.2632,-4.269,-4.2705,-4.2727,-4.278,-4.2795,-4.2899,-4.2878,-4.2944,-4.3063,-4.3103,-4.3139,-4.3291,-4.3271,-4.3313,-4.3387,-4.3454,-4.3471,-4.3486,-4.3538,-4.3557,-4.3325,-4.3325,-4.3326,0,-4.2526,-4.2635,-4.264,-4.2722,-4.2763,-4.2742,-4.2831,-4.2869,-4.2945,-4.2974,-4.2942,-4.3092,-4.3128,-4.3254,-4.3291,-4.3322,-4.3346,-4.3304,-4.3468,-4.3483,-4.3497,-4.3547,-4.3567,-4.333,-4.3329,-4.3329,-4.3329,0,-4.2703,-4.2779,-4.2844,-4.2918,-4.2967,-4.3052,-4.3071,-4.312,-4.3117,-4.3135,-4.3241,-4.3284,-4.3358,-4.3389,-4.3387,-4.3515,-4.3496,-4.3467,-4.3408,-4.3522,-4.3569,-4.3588,-4.3336,-4.3335,-4.3333,-4.3332,0,0,-4.2866,-4.2945,-4.2968,-4.3002,-4.3066,-4.3125,-4.321,-4.3283,-4.3325,-4.338,-4.345,-4.3553,-4.3527,-4.3568,-4.3571,-4.363,-4.3746,-4.3593,-4.3594,-4.3618,-4.3888,-4.3908,-4.393,-4.3734,-4.3738,-4.3741,-4.3883,0,-4.3002,-4.3151,-4.316,-4.3294,-4.3365,-4.3348,-4.3422,-4.347,-4.3491,-4.3554,-4.3578,-4.365,-4.361,-4.3635,-4.3693,-4.3719,-4.3799,-4.371,-4.3799,-4.3802,-4.3782,-4.3954,-4.3975,-4.4106,-4.3902,-4.3905,-4.3907,0,-4.3179,-4.324,-4.3381,-4.3436,-4.3466,-4.3532,-4.36,-4.3662,-4.3716,-4.3727,-4.3775,-4.377,-4.3857,-4.3799,-4.392,-4.3858,-4.3896,-4.3915,-4.392,-4.3926,-4.3859,-4.3962,-4.4148,-4.4167,-4.3936,-4.3934,-4.3932,0,-4.3282,-4.3399,-4.3499,-4.3529,-4.3596,-4.3642,-4.3673,-4.3723,-4.3767,-4.3828,-4.3856,-4.3926,-4.3964,-4.4018,-4.4032,-4.3989,-4.4153,-4.4095,-4.4163,-4.4163,-4.4195,-4.4192,-4.4387,-4.4225,-4.4225,-4.4225,-4.4224,0,-4.343,-4.3517,-4.3546,-4.3607,-4.3704,-4.3715,-4.3811,-4.3838,-4.3884,-4.395,-4.3941,-4.4004,-4.402,-4.4086,-4.4098,-4.4196,-4.4214,-4.4224,-4.4226,-4.4223,-4.4221,-4.4245,-4.4235,-4.423,-4.4229,-4.4228,-4.4227,0,-4.3559,-4.3582,-4.3689,-4.3745,-4.3761,-4.383,-4.3877,-4.3937,-4.3958,-4.4042,-4.4062,-4.4096,-4.4173,-4.4194,-4.4286,-4.4295,-4.4409,-4.4403,-4.439,-4.4389,-4.4454,-4.4447,-4.4669,-4.4698,-4.452,-4.4522,-4.4523,0,-4.365,-4.3717,-4.378,-4.3824,-4.3856,-4.3927,-4.3972,-4.3987,-4.4034,-4.4102,-4.4153,-4.423,-4.4291,-4.4415,-4.4448,-4.4519,-4.4513,-4.4586,-4.4523,-4.4519,-4.4511,-4.4506,-4.4512,-4.4597,-4.4599,-4.46,-4.4601,0,-4.381,-4.3818,-4.3883,-4.3954,-4.4008,-4.4063,-4.4117,-4.4154,-4.4176,-4.423,-4.4309,-4.4357,-4.4452,-4.4528,-4.46,-4.4631,-4.462,-4.4622,-4.4641,-4.4637,-4.4625,-4.463,-4.4419,-4.4615,-4.4614,-4.4613,-4.4612,-4.4612,-4.3921,-4.3979,-4.4033,-4.4106,-4.4148,-4.4199,-4.4257,-4.4286,-4.4353,-4.4431,-4.4437,-4.4522,-4.4577,-4.4673,-4.4708,-4.4776,-4.4754,-4.4782,-4.4788,-4.4794,-4.4798,-4.4618,-4.4789,-4.4789,-4.4789,-4.4788,-4.4788,0,-4.4077,-4.4111,-4.4179,-4.4254,-4.4313,-4.4299,-4.4358,-4.4407,-4.4483,-4.4535,-4.4596,-4.4688,-4.4762,-4.4802,-4.4875,-4.4922,-4.4918,-4.494,-4.4935,-4.4942,-4.4815,-4.479,-4.4942,-4.4942,-4.4942,-4.4942,-4.4942,-4.4942,-4.4165,-4.4262,-4.4278,-4.4397,-4.4431,-4.4515,-4.4549,-4.4596,-4.4638,-4.474,-4.4802,-4.4828,-4.4875,-4.4953,-4.5021,-4.5031,-4.5057,-4.5081,-4.5088,-4.4967,-4.4951,-4.4936,-4.4912,-4.5088,-4.5088,-4.5209,-4.521,-4.5211]},{"header":{"parameterUnit":"m.s-1","parameterCategory":1,"la1":30.2991,"la2":30.254,"lo1":-89.0895,"lo2":-89.0444,"dy":0.0017,"dx":0.0017,"nx":28,"ny":28,"refTime":"2024-02-06T09:00:00:Z","depth":0,"parameterNumber":3,"parameterNumberName":"V-component_of_WINDS"},"data":[0,0,0,0,0,0,0,0,0,0,0,0,0,0,0,0,0,0,0,0,0,0,0,0,0,0,0,0,0,0,0,0,0,0,0,0,0,0,0,0,0,0,0,0,0,0,0,0,0,0,0,0,0,0,0,0,0,0,2.2584,2.2585,0,2.2687,2.2688,2.2689,2.2699,2.2698,2.2697,2.2696,2.2797,2.28,2.2804,0,0,0,0,0,0,0,0,0,0,0,0,0,2.2393,2.2397,2.2584,2.2585,2.2587,2.2687,2.2688,2.269,2.2699,2.2698,2.2697,2.2695,2.2796,2.28,2.2804,0,0,0,0,0,0,0,0,0,0,0,0,0,2.2484,2.2398,2.2584,2.2604,2.2606,2.2687,2.2688,2.269,2.2699,2.2698,2.2696,2.2695,2.2794,2.28,2.2805,2.2871,0,0,2.2822,2.2824,0,0,0,0,0,0,0,0,2.2479,2.2491,2.2599,2.2602,2.2606,2.2679,2.2658,2.2751,2.27,2.2664,2.2696,2.2694,2.2758,2.2767,2.279,2.2876,2.288,2.2822,2.2826,2.2828,2.283,0,0,0,0,0,0,0,2.2473,2.2487,2.2625,2.2601,2.2605,2.2606,2.2618,2.2676,2.2719,2.2667,2.2668,2.268,2.276,2.2784,2.2792,2.2882,2.2822,2.2827,2.2831,2.2833,2.303,2.3031,0,0,0,0,0,0,2.2463,2.2481,2.2621,2.2628,2.2537,2.2611,2.2624,2.2657,2.2718,2.2726,2.2681,2.268,2.2776,2.2785,2.2796,2.2878,2.2828,2.2833,2.2836,2.3028,2.303,2.3032,0,0,0,0,0,0,2.2459,2.2475,2.2617,2.2555,2.2573,2.2616,2.2653,2.266,2.2684,2.2729,2.2737,2.2699,2.2775,2.2788,2.2853,2.2882,2.2836,2.2841,2.3025,2.3028,2.3031,2.3044,0,0,0,0,0,0,2.2453,2.2474,2.25,2.2555,2.2576,2.2674,2.2655,2.2663,2.2694,2.2693,2.2747,2.2755,2.2774,2.2845,2.2859,2.2889,2.2845,2.3023,2.3027,2.303,2.3041,2.3047,2.3052,0,0,0,0,0,2.2447,2.2498,2.2501,2.2518,2.261,2.2675,2.2687,2.271,2.2696,2.2723,2.2752,2.2753,2.2877,2.2851,2.2867,2.2899,2.3021,2.3026,2.303,2.3039,2.3046,2.3052,0,0,0,0,0,0,2.2442,2.2505,2.251,2.2581,2.2623,2.2677,2.2711,2.2717,2.2762,2.276,2.2785,2.2797,2.2862,2.2887,2.2858,2.2968,2.2947,2.2955,2.2949,2.2956,2.2961,2.2953,2.285,0,0,0,0,0,2.245,2.2499,2.2551,2.2609,2.263,2.2667,2.2696,2.2711,2.2755,2.2772,2.2806,2.2848,2.2896,2.2927,2.2974,2.3045,2.3057,2.3075,2.308,2.3084,2.3091,2.3131,2.314,2.3046,2.3046,2.3046,0,0,2.2466,2.2506,2.2535,2.2609,2.2643,2.2693,2.2682,2.2734,2.2771,2.2779,2.2844,2.2871,2.2919,2.2988,2.3019,2.301,2.312,2.309,2.3093,2.3097,2.3137,2.3145,2.3153,2.3049,2.3049,2.3048,0,0,2.252,2.2555,2.2608,2.2644,2.2697,2.2722,2.2734,2.2788,2.2807,2.2873,2.2881,2.2924,2.3007,2.3042,2.307,2.314,2.3143,2.3155,2.3182,2.3222,2.3229,2.3236,2.3262,2.327,2.3161,2.3161,2.3161,0,2.2532,2.2608,2.2634,2.2688,2.272,2.2733,2.2786,2.2819,2.2884,2.2906,2.2895,2.3001,2.3034,2.3112,2.313,2.3152,2.3167,2.3148,2.3226,2.3233,2.324,2.3265,2.3274,2.3162,2.3162,2.3162,2.3162,0,2.2621,2.2674,2.271,2.2776,2.2812,2.2865,2.2899,2.2933,2.2945,2.297,2.3037,2.3078,2.3135,2.3154,2.3165,2.3234,2.3227,2.3221,2.3201,2.325,2.3273,2.3283,2.3164,2.3163,2.3163,2.3163,0,0,2.2674,2.2755,2.2768,2.2798,2.2859,2.29,2.2954,2.3011,2.304,2.3085,2.3131,2.3202,2.3198,2.323,2.3245,2.328,2.3334,2.327,2.3272,2.3281,2.3414,2.3418,2.3429,2.3337,2.3339,2.334,2.341,0,2.2735,2.2834,2.286,2.2942,2.2992,2.3006,2.3053,2.3095,2.3121,2.3166,2.3194,2.3245,2.3235,2.3255,2.329,2.332,2.3361,2.3316,2.3379,2.3381,2.3367,2.3441,2.3445,2.3509,2.3419,2.3421,2.3422,0,2.282,2.2869,2.2958,2.3014,2.3036,2.3078,2.3133,2.3177,2.3225,2.3241,2.3279,2.3292,2.3348,2.3327,2.3405,2.3373,2.3401,2.342,2.3423,2.343,2.3404,2.345,2.3529,2.3539,2.3437,2.3436,2.3435,0,2.285,2.2938,2.3004,2.3029,2.3096,2.3126,2.3155,2.3202,2.3235,2.3283,2.3305,2.3359,2.3388,2.3429,2.3455,2.3437,2.3532,2.3512,2.3547,2.3547,2.3566,2.3564,2.3652,2.3584,2.3584,2.3583,2.3583,0,2.2916,2.297,2.3018,2.3058,2.3119,2.3149,2.3208,2.3237,2.328,2.3325,2.334,2.3382,2.3415,2.3461,2.3482,2.3545,2.3558,2.3572,2.3577,2.3571,2.3569,2.3589,2.3586,2.3586,2.3585,2.3585,2.3584,0,2.296,2.2994,2.3067,2.3125,2.3141,2.3184,2.3234,2.3273,2.33,2.3358,2.3373,2.3415,2.3471,2.3503,2.3572,2.3586,2.3656,2.3659,2.364,2.3643,2.3676,2.3673,2.3779,2.3795,2.3717,2.3717,2.3718,0,2.2999,2.3042,2.3106,2.3139,2.3169,2.3221,2.3256,2.3287,2.3322,2.3382,2.3414,2.3471,2.3519,2.3608,2.3644,2.3698,2.3702,2.3735,2.371,2.3703,2.3703,2.37,2.3705,2.3739,2.374,2.3741,2.3741,0,2.3066,2.3082,2.3133,2.3191,2.3233,2.3279,2.3324,2.335,2.3388,2.3428,2.3486,2.3523,2.3596,2.3653,2.371,2.3739,2.3747,2.375,2.3761,2.3755,2.3743,2.375,2.3653,2.3747,2.3746,2.3746,2.3745,2.3745,2.311,2.3149,2.3201,2.3257,2.3296,2.3339,2.3379,2.3413,2.3463,2.3526,2.3541,2.3602,2.3651,2.3729,2.376,2.3808,2.3802,2.3818,2.3822,2.3825,2.3827,2.3735,2.3819,2.3819,2.3818,2.3818,2.3818,0,2.3178,2.3213,2.3265,2.333,2.3375,2.338,2.3432,2.3468,2.3523,2.3569,2.3616,2.3684,2.374,2.3782,2.3839,2.387,2.3875,2.3884,2.3881,2.3888,2.3829,2.3814,2.3879,2.3879,2.3879,2.3879,2.3879,2.3879,2.3219,2.3286,2.3308,2.3394,2.3428,2.3491,2.352,2.356,2.3597,2.3673,2.372,2.3748,2.3792,2.3853,2.3904,2.3915,2.3935,2.3944,2.3955,2.3899,2.3892,2.3886,2.3872,2.3948,2.3948,2.4011,2.4011,2.4012]}]]